Regional Weather Roundup
Issued by NWS Upton, NY

Current Version | Previous Version | Graphics & Text | Print | Product List | Glossary Off
Versions: 1 2 3 4 5 6 7 8 9 10 11 12 13 14 15 16 17 18 19 20 21 22 23 24 25 26 27 28 29 30 31 32 33 34 35 36 37 38 39 40 41 42 43 44 45 46 47 48 49 50

000
ASUS41 KOKX 221108
RWROKX

REGIONAL WEATHER ROUNDUP
NATIONAL WEATHER SERVICE NEW YORK NY
700 AM EDT TUE AUG 22 2017

NOTE: "FAIR" INDICATES FEW OR NO CLOUDS BELOW 12,000 FEET WITH NO
SIGNIFICANT WEATHER AND/OR OBSTRUCTIONS TO VISIBILITY.

NYZ071-072-176-178-NJZ106-104-221200-
NEW YORK CITY METRO AREA

CITY           SKY/WX    TMP DP  RH WIND       PRES   REMARKS
Central Park   CLEAR     75  71  87 CALM      30.06S
Bronx Bot Gard   N/A     75  68  78 W9        30.04F
LaGuardia APRT MOCLDY    76  73  91 SW5       30.02S
Kennedy INTL   CLOUDY    74  74 100 S8        30.04S
Breezy Point     N/A     72 N/A N/A S5          N/A
Newark/Liberty MOCLDY    74  71  91 SW6       30.03S
Teterboro      CLEAR     74  71  91 SW6       30.02S
$$

NYZ177-179-078>081-221200-
LONG ISLAND NEW YORK

CITY           SKY/WX    TMP DP  RH WIND       PRES   REMARKS
Jones Beach      N/A     73 N/A N/A SW3         N/A
Matinecock PT    N/A     73 N/A N/A SW6         N/A
Farmingdale    PTCLDY    75  72  90 SW8       30.04S
MacArthur/ISP  MOCLDY    76  74  93 SW8       30.04S
Shirley        MOCLDY    76  74  93 SW8       30.05S
Mt Sinai Harb    N/A     75 N/A N/A SW6         N/A
Westhampton    PTCLDY    74  71  91 SW6       30.06S
East Hampton   MOCLDY    71  70  97 SW5       30.04S
Montauk          N/A     73  73 100 VRB6      30.06R
$$

NYZ052-065-067-221200-
HUDSON VALLEY

CITY           SKY/WX    TMP DP  RH WIND       PRES   REMARKS
White Plains   PTCLDY    73  71  93 CALM      30.04R
Larchmont Harb   N/A     73 N/A N/A S9          N/A
Croton On Huds   N/A     73 N/A N/A S1          N/A
Newburgh       PTCLDY    70  70 100 W6        30.04S
Montgomery     PTCLDY    68  67  96 CALM      30.02S FOG
Poughkeepsie   CLEAR     68  65  90 CALM      30.01R FOG
Albany         CLOUDY    71  67  87 S7        29.99S
$$

NJZ001-105-106-008-010-013-015-019>022-104-221200-
NEW JERSEY

CITY           SKY/WX    TMP DP  RH WIND       PRES   REMARKS
Newark/Liberty MOCLDY    74  71  91 SW6       30.03S
Teterboro      CLEAR     74  71  91 SW6       30.02S
Caldwell       CLEAR     72  72 100 CALM      30.03S
Somerville     CLOUDY    69  68  96 CALM      30.02S FOG
Linden         FAIR      73  70  91 CALM      30.03F
Perth Amboy      N/A     73 N/A N/A SW5         N/A
Sussex         CLOUDY    69  69 100 SW3       30.04S FOG
Andover          N/A     68  67  96 CALM      30.05S
Trenton        FOG       74  74 100 SW8       30.04S VSB 3/4
Millville      CLEAR     78  77  96 CALM      30.06S FOG
Atlantic City  PTCLDY    76  75  97 S9        30.06S
Wrightstown    CLOUDY    73  73 100 S6        30.02F
Toms River     CLOUDY    74  73  97 SW9       30.06S
Belmar         MOCLDY    74  73  97 SW9       30.06S FOG
$$

PAZ047>061-062-071-221200-
EASTERN PENNSYLVANIA

CITY           SKY/WX    TMP DP  RH WIND       PRES   REMARKS
Philadelphia   CLOUDY    76  74  93 S7        30.05S FOG
Allentown      CLEAR     68  66  93 CALM      30.05R FOG
Scranton       CLEAR     67  66  97 CALM      30.05S FOG
$$

CTZ002-004>006-009-010-012-RIZ004-006-007-MAZ004-011-015-221200-
SOUTHERN NEW ENGLAND
 IN CT

CITY           SKY/WX    TMP DP  RH WIND       PRES   REMARKS
Bradley INTL   MOCLDY    71  70  96 S9        30.02S FOG
Hartford       CLEAR     72  70  93 S7        30.01S
Danbury        CLEAR     68  67  96 CALM      30.05R FOG
Wtrbury/Oxford FOG       69  69 100 S5        30.06R VSB 1/4
Norwalk Harbor   N/A     73 N/A N/A S7          N/A
Bridgeport     CLOUDY    75  72  90 SW8       30.03S
Meriden        PTCLDY    69  68  96 CALM      30.03S FOG
New Haven      MOCLDY    75  72  90 VRB5      30.03S FOG
Chester        FOG       73  73 100 SW7       30.04F VSB 1/2
Groton         CLOUDY    73  71  93 S7        30.04R FOG
Wilimantic     CLOUDY    67  66  97 CALM      30.04S

 IN RI

CITY           SKY/WX    TMP DP  RH WIND       PRES   REMARKS
Providence     CLOUDY    71  71 100 S7        30.04S FOG
Block Island   MOCLDY    71  70  96 SW12      30.06S
Westerly       CLOUDY    73  71  93 SW5       30.06R FOG
 IN MA

CITY           SKY/WX    TMP DP  RH WIND       PRES   REMARKS
Boston         MOSUNNY   70  67  90 SE3       30.01
Worcester      CLEAR     68  66  93 SW6       30.04S FOG
Westfield      CLOUDY    68  67  96 CALM      30.02R
Provincetown   PTSUNNY   71  70  96 SW12      30.04S
Nantucket      SUNNY     69  69 100 SW10      30.07S FOG
$$

ANZ330-335-338-340-345-350-353-355-221200-
COASTAL MARINE OBSERVATIONS


STATION/POSITION TIME  SKY/WX   TEMP    WIND        PRES    VSBY  WAVE
                                AIR SEA DIR/SP/G                  HT/PER
                 (UTC)          (F)     (DEG/KT/KT) (MB)    (MI)  (FT/S)
NY HARB ENTRANCE 0950            76 76  220/ 12/ 14 1016.6          2/ 9
GREAT SOUTH BAY  1030            76 78  220/ 10/ 14   N/A
23 SSW MONTAUK P 0950            74 72              1017.8          3/ 5
15 E BARNEGAT LI 1000               77                N/A           3/ 4
HUDSON CANYON    0950            76 76  180/  8/ 12 1018.0          3/ 8
KINGS POINT      1024            74 75  200/  8/  9 1016.7
EXECUTION ROCKS  NOT AVBL
WESTERN LI SOUND NOT AVBL
CENTRAL LI SOUND NOT AVBL
EASTERN LI SOUND NOT AVBL
ROBBINS REEF     1030                   170/  8/  9 1017.6
$$


>>>>>>>>>>>>>>>>>>>>>>>>>>>> KEY <<<<<<<<<<<<<<<<<<<<<<<<<<<
>                                                          <
>     SKY/WX - Sky Condition/Present Weather               <
>     TMP    - Temperature in Fahrenheit                   <
>     DP     - Dew Point in Fahrenheit                     <
>     RH     - Relative Humidity in Percent                <
>     WIND   - Direction (from) and Speed in MPH           <
>     PRES   - Mean Sea Level Pressure (inches of Hg)      <
>     WCI    - Wind Chill Index                            <
>     VSB    - VISIBILITY IN MILES                         <
>     HX     - HEAT INDEX                                  <
>     TC     - TEMPERATURE IN CELSIUS                      <
>     VRB    - VARIABLE WIND DIRECTION                     <
>                                                          <
>>>>>>>>>>>>>>>>>>>>>>>>>>>> KEY <<<<<<<<<<<<<<<<<<<<<<<<<<<



USA.gov is the U.S. government's official web portal to all federal, state and local government web resources and services.